TimeCST,TemperatureF,Dew PointF,Humidity,Sea Level PressureIn,VisibilityMPH,Wind Direction,Wind SpeedMPH,Gust SpeedMPH,PrecipitationIn,Events,Conditions,WindDirDegrees,DateUTC
12:53 AM,57.9,37.9,47,30.28,10.0,Calm,Calm,-,N/A,,Overcast,0,2012-11-16 06:53:00
1:53 AM,57.9,39.0,49,30.27,10.0,Calm,Calm,-,N/A,,Overcast,0,2012-11-16 07:53:00
2:53 AM,57.9,39.0,49,30.26,10.0,NE,3.5,-,N/A,,Overcast,50,2012-11-16 08:53:00
3:53 AM,57.0,39.0,51,30.27,10.0,NNE,4.6,-,N/A,,Overcast,20,2012-11-16 09:53:00
4:53 AM,57.9,39.0,49,30.27,10.0,NE,5.8,-,N/A,,Overcast,40,2012-11-16 10:53:00
6:53 AM,57.0,37.9,49,30.30,10.0,NNE,4.6,-,N/A,,Overcast,30,2012-11-16 12:53:00
7:53 AM,57.0,37.0,47,30.32,10.0,ENE,8.1,-,N/A,,Overcast,60,2012-11-16 13:53:00
8:53 AM,57.0,37.0,47,30.34,10.0,NNE,10.4,-,N/A,,Overcast,30,2012-11-16 14:53:00
9:53 AM,57.0,36.0,45,30.36,10.0,ENE,5.8,-,N/A,,Overcast,60,2012-11-16 15:53:00
10:53 AM,62.1,36.0,38,30.34,10.0,ENE,6.9,-,N/A,,Overcast,60,2012-11-16 16:53:00
11:53 AM,66.0,35.1,32,30.33,10.0,NE,10.4,-,N/A,,Mostly Cloudy,40,2012-11-16 17:53:00
12:53 PM,68.0,37.0,32,30.29,10.0,East,12.7,18.4,N/A,,Clear,80,2012-11-16 18:53:00
1:53 PM,68.0,36.0,31,30.27,10.0,ENE,11.5,18.4,N/A,,Clear,60,2012-11-16 19:53:00
2:53 PM,69.1,37.0,31,30.25,10.0,ENE,9.2,-,N/A,,Partly Cloudy,60,2012-11-16 20:53:00
3:53 PM,69.1,36.0,30,30.26,10.0,NE,6.9,-,N/A,,Clear,50,2012-11-16 21:53:00
4:53 PM,66.9,36.0,32,30.26,10.0,ENE,8.1,-,N/A,,Clear,60,2012-11-16 22:53:00
5:53 PM,63.0,35.1,35,30.27,10.0,ENE,5.8,-,N/A,,Clear,60,2012-11-16 23:53:00
6:53 PM,61.0,33.1,35,30.29,10.0,ENE,3.5,-,N/A,,Clear,60,2012-11-17 00:53:00
7:53 PM,59.0,30.9,35,30.31,10.0,ENE,8.1,-,N/A,,Clear,60,2012-11-17 01:53:00
8:53 PM,57.9,28.9,33,30.32,10.0,ENE,8.1,-,N/A,,Clear,60,2012-11-17 02:53:00
9:53 PM,55.9,30.0,37,30.33,10.0,NE,8.1,-,N/A,,Clear,50,2012-11-17 03:53:00
10:53 PM,54.0,30.9,41,30.33,10.0,ENE,5.8,-,N/A,,Clear,70,2012-11-17 04:53:00
11:53 PM,51.1,32.0,48,30.35,10.0,Calm,Calm,-,N/A,,Clear,0,2012-11-17 05:53:00